Location: ??????
(30.5519°N, 47.7720°E)
Time: 17:44:21
(UTC+00:00)

Cosmos 1833 Rocket - Pass Details

Date: 24 January 2021
Orbit: 833 x 839 km, 71.0° (Epoch: 01 March)

Event Time Altitude Azimuth Distance (km) Brightness Sun altitude
Rises 15:05:49 0° 4° (N) 3,383 5.6 -10.5°
Reaches altitude 10° 15:10:00 10° 34° (NNE) 2,446 4.7 -11.4°
Enters shadow 15:11:22 12° 48° (NE) 2,312 4.4 -11.7°
